Rbgn^[z[y[W
メイン
   新天体発見情報
     Comet P/2020 M1 (PANSTARRS)
投稿するにはまず登録を

スレッド表示 | 新しいものから 前のトピック | 次のトピック | 下へ
投稿者 スレッド
佐藤裕久
投稿日時: 2020-6-28 14:26
モデレータ
登録日: 2005-6-12
居住地: 日本
投稿: 2143
オンライン
Comet P/2020 M1 (PANSTARRS)

Y. Ramanjooloo (ハワイ大学, 天文学研究所)の通報によると、6月17日、Haleakalaにある
Pan-STARRS1 1.8-m Ritchey-Chretien反射望遠鏡で得た画像から彗星を発見した。
この彗星は、非常に集光した1".4のコマ(1".0のシーイングにおいて)とp.a. 228°に3".8の
真直ぐな尾がある。5月24日と6月11日にPan-STARRS2 1.8-m反射望遠鏡で、5月28日にPan-
STARRS1でそれぞれ発見前の位置観測があった。
R. Weryk (ハワイ大学)の報告では、6月20.3日日UT、二夜、R. Wainscoat, H. Januszewskiと 
S. PrunetがMauna Keaにある3.6-m Canada-France-Hawaii Telescopeで得たフォローアップ
CCD観測から、6枚の60秒gri-バンド画像は、南西に向かって約2"伸びた短い尾が見え、彗星の
頭部はシーイングが0".9において、半値全幅(FWHM)は1".2であった。

彗星機能の追加報告は次の通り:

OC   Date        Reporter           Coma    Tail    PA          Exposures
568  2020-06-20  R. Weryk           0".22   2"      225          6x60s
568  2020-06-21  R. Weryk           0".39   2"      
568  2020-06-21  R. Weryk           0".28   2"      225          3x60s

発見位置は次のとおり、

     2020 UT             R.A. (2000) Decl.       Mag.
     May  24.44616   17 04 22.79   -10 18 02.2   21.1
          24.45802   17 04 22.31   -10 18 02.1   20.4
          24.46989   17 04 21.87   -10 18 01.4   21.4
          28.41690   17 01 54.54   -10 16 09.5   21.1
          28.42917   17 01 54.03   -10 16 09.3   21.3
          28.44145   17 01 53.56   -10 16 09.1   21.4
     June 11.36424   16 52 57.95   -10 21 35.8   20.7
          11.37549   16 52 57.50   -10 21 36.9   21.0
          11.38675   16 52 57.06   -10 21 37.8   20.6
          11.39808   16 52 56.62   -10 21 38.1   21.0
          17.36562   16 49 21.51   -10 29 48.2   21.3
          17.37750   16 49 21.08   -10 29 49.5   21.4
          17.38936   16 49 20.65   -10 29 50.6   21.2
          17.40121   16 49 20.22   -10 29 51.6   21.1

MPCの楕円軌道要素と位置推算表は次のとおり、

Orbital elements:
    P/2020 M1 (PANSTARRS)                                                       
T 2019 Dec. 21.04748 TT                                 Rudenko                 
q   2.6604568            (2000.0)            P               Q                  
n   0.08587021     Peri.   67.82184     -0.85280804     +0.51433823             
a   5.0883195      Node   142.95945     -0.51713707     -0.80763952             
e   0.4771443      Incl.    8.63238     -0.07271648     -0.28840005             
P  11.5                                                                         
From 25 observations 2020 May 24-June 21.                                       
                                                                                
Ephemeris:
Date    TT    R. A. (2000) Decl.     Delta      r    Elong.  Phase   m1
2020 05 24    17 04 39.0 -10 18 18   1.9031  2.8835   162.0     6.2  21.0
...
2020 06 08    16 55 05.5 -10 18 30   1.9267  2.9252   167.2     4.4  21.1
...
2020 06 16    16 50 09.1 -10 27 35   1.9630  2.9486   162.7     5.9  21.2
...
2020 06 22    16 46 49.1 -10 38 27   2.0010  2.9666   157.7     7.5  21.2
2020 06 23    16 46 18.3 -10 40 36   2.0081  2.9696   156.8     7.7  21.2
2020 06 24    16 45 48.4 -10 42 49   2.0156  2.9727   155.9     8.0  21.3
...
2020 06 30    16 43 08.0 -10 58 01   2.0651  2.9912   150.4     9.7  21.3
...
2020 07 08    16 40 31.6 -11 22 43   2.1434  3.0165   142.8    11.8  21.5
...
2020 07 23    16 38 58.3 -12 19 49   2.3236  3.0655   128.9    14.9  21.7

(MPEC 2020-M76、CBET 4800)

スレッド表示 | 新しいものから 前のトピック | 次のトピック | トップ

投稿するにはまず登録を
 
© 1999 Tsutomu Seki.